[[{"header":{"parameterUnit":"m.s-1","parameterCategory":1,"la1":30.2991,"la2":30.254,"lo1":-89.0895,"lo2":-89.0444,"dy":0.0017,"dx":0.0017,"nx":28,"ny":28,"refTime":"2025-11-19T09:00:00:Z","depth":0,"parameterNumber":2,"parameterNumberName":"U-component_of_WINDS"},"data":[0,0,0,0,0,0,0,0,0,0,0,0,0,0,0,0,0,0,0,0,0,0,0,0,0,0,0,0,0,0,0,0,0,0,0,0,0,0,0,0,0,0,0,0,0,0,0,0,0,0,0,0,0,0,0,0,0,0,-0.1025,-0.1025,0,-0.1075,-0.1076,-0.1077,-0.1091,-0.1091,-0.109,-0.109,-0.1145,-0.1147,-0.1149,0,0,0,0,0,0,0,0,0,0,0,0,0,-0.0944,-0.0946,-0.1025,-0.1025,-0.1026,-0.1075,-0.1076,-0.1077,-0.1091,-0.1091,-0.109,-0.109,-0.1145,-0.1147,-0.1149,0,0,0,0,0,0,0,0,0,0,0,0,0,-0.0986,-0.0946,-0.1025,-0.1039,-0.1041,-0.1075,-0.1076,-0.1077,-0.1091,-0.1091,-0.109,-0.109,-0.1144,-0.1147,-0.1149,-0.1174,0,0,-0.1157,-0.1158,0,0,0,0,0,0,0,0,-0.0983,-0.0988,-0.1036,-0.1038,-0.104,-0.1076,-0.1068,-0.111,-0.1091,-0.1072,-0.109,-0.109,-0.1123,-0.1127,-0.1138,-0.1177,-0.1179,-0.1158,-0.1159,-0.116,-0.1161,0,0,0,0,0,0,0,-0.098,-0.0986,-0.1045,-0.1037,-0.1039,-0.1044,-0.105,-0.1076,-0.11,-0.1074,-0.1075,-0.108,-0.1124,-0.1135,-0.1139,-0.118,-0.1158,-0.116,-0.1161,-0.1162,-0.1244,-0.1244,0,0,0,0,0,0,-0.0974,-0.0984,-0.1043,-0.1046,-0.101,-0.1046,-0.1052,-0.1065,-0.1099,-0.1104,-0.1081,-0.1081,-0.1131,-0.1136,-0.1141,-0.1174,-0.116,-0.1163,-0.1164,-0.1243,-0.1244,-0.1244,0,0,0,0,0,0,-0.0973,-0.098,-0.1041,-0.1015,-0.1024,-0.1048,-0.1062,-0.1066,-0.1078,-0.1104,-0.1109,-0.1088,-0.1131,-0.1138,-0.1166,-0.1176,-0.1164,-0.1166,-0.1242,-0.1243,-0.1244,-0.1238,0,0,0,0,0,0,-0.097,-0.0979,-0.0987,-0.1015,-0.1025,-0.1064,-0.1063,-0.1068,-0.1082,-0.1082,-0.1112,-0.1117,-0.1131,-0.1162,-0.1169,-0.1179,-0.1168,-0.1242,-0.1243,-0.1244,-0.1237,-0.1238,-0.1239,0,0,0,0,0,-0.0967,-0.0984,-0.0988,-0.0995,-0.1036,-0.1064,-0.107,-0.1085,-0.1082,-0.1092,-0.111,-0.1116,-0.1174,-0.1165,-0.1172,-0.1184,-0.1241,-0.1243,-0.1244,-0.1237,-0.1238,-0.1239,0,0,0,0,0,0,-0.0958,-0.0988,-0.0992,-0.1019,-0.1039,-0.1066,-0.1079,-0.1086,-0.1108,-0.1107,-0.1126,-0.1133,-0.116,-0.1175,-0.1165,-0.1211,-0.1208,-0.1211,-0.12,-0.1201,-0.1202,-0.1198,-0.1171,0,0,0,0,0,-0.0958,-0.0977,-0.1003,-0.1024,-0.1034,-0.1055,-0.1068,-0.1077,-0.1099,-0.1108,-0.1128,-0.115,-0.1173,-0.1188,-0.1211,-0.124,-0.1247,-0.1251,-0.1252,-0.1253,-0.1255,-0.1273,-0.1276,-0.1249,-0.1249,-0.1249,0,0,-0.0961,-0.0979,-0.0991,-0.1023,-0.1039,-0.106,-0.1062,-0.1083,-0.1099,-0.1112,-0.114,-0.1155,-0.1181,-0.121,-0.1224,-0.1223,-0.1265,-0.1255,-0.1255,-0.1257,-0.1275,-0.1277,-0.1279,-0.125,-0.125,-0.1249,0,0,-0.0975,-0.0991,-0.101,-0.1027,-0.1051,-0.1065,-0.107,-0.1097,-0.1107,-0.1135,-0.1146,-0.1166,-0.1205,-0.1223,-0.1238,-0.126,-0.1268,-0.1267,-0.1273,-0.129,-0.1292,-0.1294,-0.1303,-0.1306,-0.127,-0.127,-0.127,0,-0.0975,-0.1005,-0.1019,-0.104,-0.1055,-0.1066,-0.1087,-0.1103,-0.1135,-0.1145,-0.1143,-0.1194,-0.1212,-0.1246,-0.1251,-0.1262,-0.127,-0.1264,-0.129,-0.1292,-0.1294,-0.1303,-0.1306,-0.1269,-0.1269,-0.1269,-0.127,0,-0.1004,-0.1025,-0.1038,-0.1067,-0.1083,-0.1104,-0.1123,-0.1137,-0.1146,-0.1161,-0.119,-0.1213,-0.1241,-0.1249,-0.1258,-0.1285,-0.1284,-0.1286,-0.1284,-0.1296,-0.1305,-0.1309,-0.1269,-0.1269,-0.1269,-0.1269,0,0,-0.1013,-0.105,-0.1055,-0.1069,-0.1097,-0.1115,-0.1137,-0.1163,-0.1176,-0.1198,-0.1218,-0.1251,-0.1253,-0.127,-0.1281,-0.1296,-0.1314,-0.1297,-0.1298,-0.13,-0.1346,-0.1344,-0.1348,-0.1318,-0.1319,-0.132,-0.1344,0,-0.1032,-0.107,-0.1084,-0.1116,-0.1137,-0.1148,-0.1168,-0.1188,-0.1203,-0.1223,-0.124,-0.1263,-0.1264,-0.1275,-0.129,-0.1308,-0.1323,-0.1307,-0.1339,-0.1339,-0.1332,-0.1352,-0.1351,-0.1372,-0.1347,-0.1348,-0.1348,0,-0.1058,-0.1079,-0.1113,-0.114,-0.1149,-0.1166,-0.1192,-0.1211,-0.1235,-0.1245,-0.1264,-0.1274,-0.1299,-0.1295,-0.1331,-0.1319,-0.1334,-0.1345,-0.1346,-0.135,-0.1345,-0.1357,-0.1379,-0.1383,-0.1353,-0.1353,-0.1353,0,-0.1063,-0.11,-0.1125,-0.1136,-0.1168,-0.118,-0.1194,-0.1218,-0.1233,-0.1256,-0.1267,-0.1293,-0.1307,-0.1328,-0.1346,-0.1341,-0.1381,-0.1378,-0.1391,-0.1391,-0.1399,-0.1398,-0.1424,-0.1407,-0.1407,-0.1407,-0.1407,0,-0.1083,-0.1103,-0.1128,-0.1143,-0.1167,-0.1184,-0.1207,-0.1222,-0.1243,-0.1263,-0.1275,-0.1294,-0.1317,-0.1339,-0.1353,-0.1381,-0.1388,-0.1397,-0.1401,-0.1397,-0.1395,-0.1406,-0.1406,-0.1408,-0.1408,-0.1407,-0.1407,0,-0.1092,-0.1109,-0.1137,-0.1165,-0.1172,-0.1189,-0.1213,-0.123,-0.1245,-0.127,-0.1277,-0.1301,-0.1328,-0.1348,-0.1383,-0.1392,-0.1423,-0.1426,-0.1414,-0.1416,-0.1428,-0.1427,-0.1463,-0.1469,-0.1447,-0.1447,-0.1447,0,-0.1103,-0.1119,-0.1148,-0.1162,-0.1176,-0.1197,-0.1213,-0.1231,-0.1247,-0.1276,-0.1289,-0.1316,-0.1339,-0.1382,-0.1403,-0.1431,-0.1435,-0.1446,-0.144,-0.1435,-0.1437,-0.1436,-0.1438,-0.1447,-0.1447,-0.1447,-0.1447,0,-0.1122,-0.113,-0.1151,-0.1175,-0.1193,-0.1214,-0.1235,-0.1245,-0.1267,-0.1285,-0.1312,-0.1329,-0.1365,-0.1392,-0.1422,-0.1438,-0.1447,-0.1449,-0.1454,-0.145,-0.1442,-0.1447,-0.1417,-0.1448,-0.1448,-0.1448,-0.1448,-0.1448,-0.1134,-0.1149,-0.1172,-0.1195,-0.1212,-0.1232,-0.1248,-0.1265,-0.1288,-0.1317,-0.1327,-0.1355,-0.138,-0.142,-0.1437,-0.146,-0.1461,-0.1467,-0.1469,-0.147,-0.147,-0.1438,-0.1466,-0.1466,-0.1466,-0.1466,-0.1466,0,-0.1154,-0.1169,-0.1191,-0.1219,-0.1238,-0.1243,-0.1267,-0.1283,-0.1307,-0.1329,-0.1351,-0.1383,-0.141,-0.1433,-0.1462,-0.1476,-0.1481,-0.1483,-0.1483,-0.1487,-0.1468,-0.1462,-0.1479,-0.1479,-0.1479,-0.1479,-0.1479,-0.1479,-0.1167,-0.1193,-0.1203,-0.1239,-0.1254,-0.1281,-0.1294,-0.1312,-0.133,-0.1365,-0.1387,-0.1401,-0.1425,-0.1455,-0.1481,-0.1487,-0.1498,-0.1499,-0.1507,-0.1489,-0.1488,-0.1486,-0.148,-0.1501,-0.1501,-0.1523,-0.1524,-0.1524]},{"header":{"parameterUnit":"m.s-1","parameterCategory":1,"la1":30.2991,"la2":30.254,"lo1":-89.0895,"lo2":-89.0444,"dy":0.0017,"dx":0.0017,"nx":28,"ny":28,"refTime":"2025-11-19T09:00:00:Z","depth":0,"parameterNumber":3,"parameterNumberName":"V-component_of_WINDS"},"data":[0,0,0,0,0,0,0,0,0,0,0,0,0,0,0,0,0,0,0,0,0,0,0,0,0,0,0,0,0,0,0,0,0,0,0,0,0,0,0,0,0,0,0,0,0,0,0,0,0,0,0,0,0,0,0,0,0,0,0.6544,0.6544,0,0.6518,0.6517,0.6517,0.6503,0.6503,0.6502,0.6502,0.6473,0.6472,0.6472,0,0,0,0,0,0,0,0,0,0,0,0,0,0.658,0.658,0.6544,0.6544,0.6544,0.6518,0.6517,0.6517,0.6503,0.6503,0.6502,0.6502,0.6473,0.6472,0.6471,0,0,0,0,0,0,0,0,0,0,0,0,0,0.656,0.658,0.6544,0.6533,0.6532,0.6518,0.6517,0.6517,0.6503,0.6503,0.6502,0.6502,0.6474,0.6472,0.6471,0.6465,0,0,0.6468,0.6467,0,0,0,0,0,0,0,0,0.6561,0.6559,0.6535,0.6534,0.6533,0.6513,0.6519,0.6499,0.6503,0.6514,0.6502,0.6502,0.6486,0.6484,0.6479,0.6464,0.6463,0.6468,0.6467,0.6467,0.6466,0,0,0,0,0,0,0,0.6563,0.656,0.6534,0.6535,0.6533,0.6529,0.6526,0.6515,0.6501,0.6513,0.6512,0.6509,0.6486,0.648,0.6478,0.6462,0.6468,0.6467,0.6466,0.6466,0.644,0.644,0,0,0,0,0,0,0.6566,0.6561,0.6535,0.6533,0.6547,0.6528,0.6525,0.652,0.6501,0.6498,0.6509,0.6508,0.6482,0.648,0.6477,0.6469,0.6467,0.6466,0.6465,0.644,0.644,0.644,0,0,0,0,0,0,0.6567,0.6564,0.6536,0.6547,0.6543,0.6528,0.6522,0.6519,0.6514,0.6498,0.6495,0.6506,0.6482,0.6479,0.6468,0.6467,0.6465,0.6464,0.644,0.644,0.644,0.6452,0,0,0,0,0,0,0.6568,0.6564,0.6563,0.6547,0.6542,0.6528,0.6522,0.6519,0.6512,0.6511,0.6495,0.6492,0.6482,0.647,0.6467,0.6466,0.6463,0.644,0.644,0.644,0.6451,0.6452,0.6453,0,0,0,0,0,0.657,0.6567,0.6563,0.6559,0.654,0.6528,0.6525,0.6514,0.6512,0.651,0.6499,0.6492,0.6468,0.6469,0.6466,0.6464,0.644,0.644,0.644,0.6451,0.6452,0.6453,0,0,0,0,0,0,0.6582,0.6564,0.656,0.6552,0.6541,0.6526,0.6522,0.6516,0.6506,0.6505,0.6491,0.6488,0.6478,0.647,0.6472,0.6457,0.6453,0.6452,0.6463,0.6463,0.6464,0.6466,0.6462,0,0,0,0,0,0.6584,0.6576,0.6561,0.6555,0.6551,0.6537,0.6532,0.6524,0.6513,0.6508,0.6497,0.6486,0.6475,0.6469,0.6459,0.645,0.6446,0.6447,0.6448,0.6448,0.6448,0.6442,0.6442,0.644,0.644,0.644,0,0,0.6587,0.6577,0.6573,0.6558,0.6549,0.6541,0.6534,0.6526,0.6519,0.6507,0.6497,0.6488,0.6474,0.6464,0.6459,0.6457,0.6448,0.6448,0.6449,0.6448,0.6442,0.6442,0.6443,0.644,0.644,0.644,0,0,0.659,0.6581,0.6576,0.6567,0.6554,0.6545,0.6544,0.6529,0.6523,0.6512,0.6503,0.6495,0.6477,0.6468,0.6461,0.6459,0.6452,0.6456,0.646,0.6455,0.6455,0.6455,0.6454,0.6454,0.6456,0.6456,0.6456,0,0.6596,0.6584,0.6573,0.6566,0.6559,0.6548,0.6542,0.6534,0.6518,0.6513,0.6511,0.6489,0.6479,0.6467,0.6466,0.6461,0.6458,0.6458,0.6456,0.6456,0.6456,0.6455,0.6455,0.6456,0.6456,0.6456,0.6456,0,0.6592,0.6584,0.6581,0.6566,0.6559,0.6552,0.654,0.6534,0.6527,0.6518,0.6507,0.6494,0.6481,0.6478,0.6471,0.6464,0.6463,0.6459,0.6455,0.6457,0.6456,0.6455,0.6457,0.6457,0.6457,0.6457,0,0,0.6602,0.6582,0.6581,0.6574,0.6559,0.6552,0.6544,0.6532,0.6527,0.6516,0.6508,0.6494,0.649,0.6481,0.6473,0.6468,0.6468,0.6464,0.6464,0.6465,0.646,0.6463,0.6463,0.6463,0.6463,0.6463,0.6461,0,0.6602,0.6589,0.6579,0.6569,0.6561,0.655,0.6543,0.6532,0.6524,0.6515,0.6505,0.6495,0.649,0.6485,0.648,0.6469,0.6466,0.6469,0.6455,0.6455,0.6459,0.6463,0.6466,0.6465,0.646,0.646,0.646,0,0.6601,0.6591,0.6581,0.6566,0.6562,0.6557,0.6544,0.6536,0.6524,0.6518,0.6509,0.65,0.6491,0.6487,0.6474,0.6476,0.6469,0.6463,0.6463,0.6461,0.6458,0.6461,0.6464,0.6464,0.6459,0.6459,0.6459,0,0.6609,0.6593,0.6585,0.658,0.6562,0.6558,0.6551,0.6538,0.6531,0.652,0.6516,0.6503,0.6497,0.6487,0.6475,0.6474,0.6462,0.6458,0.6456,0.6457,0.6455,0.6455,0.6457,0.6451,0.6451,0.6451,0.6451,0,0.6611,0.6605,0.6589,0.6583,0.6576,0.6564,0.6556,0.6548,0.6537,0.6529,0.6519,0.6511,0.6496,0.6487,0.6477,0.6467,0.6464,0.6458,0.6456,0.6459,0.646,0.6455,0.6455,0.6451,0.6451,0.6451,0.6451,0,0.6619,0.6608,0.6598,0.6582,0.6578,0.6574,0.656,0.6554,0.6545,0.6535,0.6532,0.6517,0.6505,0.6493,0.6477,0.647,0.6461,0.6457,0.6465,0.6464,0.6463,0.6463,0.6462,0.6461,0.6455,0.6455,0.6455,0,0.6621,0.6616,0.66,0.6595,0.6588,0.6579,0.6572,0.6559,0.6552,0.6538,0.6533,0.6521,0.6511,0.6493,0.648,0.6467,0.6463,0.6464,0.6461,0.6465,0.6463,0.6464,0.6463,0.6465,0.6465,0.6465,0.6465,0,0.6625,0.662,0.6611,0.66,0.6592,0.6582,0.6572,0.6568,0.6554,0.6546,0.6535,0.6527,0.6511,0.6498,0.6484,0.6475,0.6468,0.6466,0.6465,0.6468,0.6473,0.647,0.6467,0.6466,0.6466,0.6466,0.6466,0.6466,0.663,0.6625,0.6613,0.6603,0.6595,0.6585,0.6579,0.6569,0.656,0.6546,0.6539,0.6527,0.6514,0.6495,0.6486,0.6476,0.6474,0.6472,0.6472,0.6471,0.6472,0.6475,0.6473,0.6473,0.6473,0.6473,0.6473,0,0.6634,0.6626,0.6617,0.6603,0.6595,0.6589,0.6578,0.6571,0.6561,0.655,0.654,0.6527,0.6515,0.6501,0.6488,0.6483,0.6479,0.6479,0.648,0.6478,0.6475,0.6478,0.6483,0.6483,0.6483,0.6483,0.6483,0.6483,0.6635,0.6627,0.662,0.6606,0.6598,0.6587,0.6581,0.6572,0.6563,0.6548,0.6539,0.653,0.6517,0.6503,0.6492,0.6488,0.6483,0.6486,0.6481,0.6479,0.6478,0.6477,0.6479,0.6485,0.6485,0.6484,0.6484,0.6484]}]]